#timestamp,LO_Frequency,Hit 
1504746015.2,286047003.7,N
1504746035.1,286047005.6,N
1504746036.0,286047005.6,N
1504746055.8,286047003.5,N
1504746075.6,286047005.9,N
1504746095.5,286047004.3,N
1504746115.3,286047003.5,N
1504746135.1,286047003.0,N
1504746155.9,286047003.6,N
1504746175.7,286047002.3,N
1504746195.5,286047001.3,N
1504746215.4,286047003.3,N
1504746235.2,286047003.1,N
1504746255.0,286047005.9,N
1504746255.9,286047005.9,N
1504746275.8,286047003.6,N
1504746295.6,286047002.6,N
1504746315.4,286047001.9,N
1504746335.3,286047004.4,N
1504746355.1,286047001.1,N
1504746356.0,286047001.1,N
1504746375.8,286046998.1,N
1504746395.6,286047000.4,N
1504746415.5,286047001.6,N
1504746435.3,286047004.4,N
1504746455.1,286047005.4,N
1504746475.9,286047004.7,N
1504746495.7,286047006.9,P
1504746515.5,286047003.4,N
1504746535.4,286047005.9,P
1504746555.2,286047001.8,N
1504746575.0,286047002.6,N
1504746575.9,286047002.6,N
1504746595.8,286047002.6,N
1504746615.6,286047000.2,N
1504746635.4,286047000.0,N
1504746655.3,286047003.9,N
1504746675.1,286047005.7,N
1504746676.0,286047005.7,N
1504746695.8,286047003.1,N
1504746715.7,286046999.7,N
1504746735.5,286047000.6,N
1504746755.3,286047002.3,N
1504746775.2,286047003.7,N
1504746795.9,286047003.5,N
1504746815.7,286047001.6,N
1504746835.5,286047003.0,N
1504746855.4,286047003.8,N
1504746875.2,286047005.9,P
1504746895.1,286047002.6,N
1504746896.0,286047002.6,N
1504746915.8,286047001.3,N
1504746935.6,286047002.2,N
1504746955.4,286047002.3,N
1504746975.3,286047000.1,N
1504746995.1,286047001.7,N
1504747015.9,286047004.9,P
1504747035.7,286047002.2,N
1504747055.5,286047004.3,P
1504747075.4,286047004.0,P
1504747095.2,286046998.3,P
1504747115.0,286046997.3,N
1504747115.9,286046997.3,N
1504747135.8,286046998.0,N
1504747155.6,286046999.0,N
1504747175.4,286047000.5,N
1504747195.2,286047000.4,N
1504747215.1,286047000.0,N
1504747216.0,286047000.0,N
1504747235.8,286046997.8,N
1504747255.6,286046997.9,N
1504747275.5,286046995.0,N
1504747295.3,286046999.0,N
1504747315.1,286046998.5,N
1504747335.9,286046999.4,N
1504747355.7,286046999.0,N
1504747375.5,286047000.5,N
1504747395.4,286047001.1,N
1504747415.2,286047000.6,N
1504747435.0,286047000.5,N
1504747435.9,286047000.5,N
1504747455.8,286046998.6,N
1504747475.6,286046998.1,N
1504747495.4,286046995.6,N
1504747515.2,286046996.3,N
1504747535.1,286046997.8,N
1504747536.0,286046997.8,N
1504747555.8,286046999.6,N
1504747575.6,286046999.4,N
1504747595.5,286047002.5,N
1504747615.3,286047001.9,N
1504747635.1,286047002.7,N
1504747655.9,286047002.4,N
1504747675.7,286047000.4,N
1504747695.5,286047005.9,P
1504747715.4,286047005.9,N
1504747735.2,286047005.6,N
1504747755.0,286047005.7,N
1504747755.9,286047005.7,N
1504747775.8,286047006.9,N
1504747795.6,286047008.6,P
1504747815.4,286047004.3,N
1504747835.3,286047001.3,N
1504747855.1,286047002.5,N
1504747875.8,286047000.1,N
1504747895.7,286046999.7,N
1504747915.5,286047002.3,N
1504747935.3,286047003.5,N
1504747955.2,286046999.7,N
1504747975.9,286046998.2,N
1504747995.7,286046998.7,N
1504748015.5,286047001.8,N
1504748035.4,286047003.6,N
1504748055.2,286047004.3,N
1504748075.0,286047004.3,N
1504748075.9,286047004.3,N
1504748095.8,286047001.8,N
1504748115.6,286047004.2,N
1504748135.4,286046999.7,N
1504748155.3,286047000.7,N
1504748175.1,286046999.1,N
1504748195.8,286046999.5,N
1504748215.7,286046996.9,N
1504748235.5,286046997.8,N
1504748255.3,286046997.7,N
1504748275.2,286046997.5,N
1504748295.9,286046996.9,N
1504748315.7,286047001.2,N
1504748335.5,286046998.3,N
1504748355.4,286046998.3,N
1504748375.2,286047000.3,N
1504748395.0,286047003.9,N
1504748395.9,286047003.9,N
1504748415.8,286047004.2,N
1504748435.6,286047004.4,N
1504748455.4,286047000.2,N
1504748475.3,286046999.0,N
1504748495.1,286046997.1,N
1504748496.0,286046997.1,N
1504748515.8,286046996.0,N
1504748535.7,286046995.1,N
1504748555.5,286047000.0,N
1504748575.3,286047002.8,N
1504748595.2,286046998.3,N
1504748615.9,286047000.3,N
1504748635.7,286047000.0,N
1504748655.5,286047000.2,N
1504748675.4,286047000.4,N
1504748695.2,286046999.4,N
1504748715.0,286046998.7,N
1504748715.9,286046998.7,N
1504748735.8,286046999.7,N
1504748755.6,286047003.3,N
1504748775.4,286047003.5,N
1504748795.3,286047003.8,N
1504748815.1,286047004.2,N
1504748835.8,286047003.8,N
1504748855.7,286047002.7,N
1504748875.5,286047001.6,N
1504748895.3,286047002.0,N
1504748915.2,286047002.1,N
1504748935.9,286047002.7,N
1504748955.7,286047001.9,N
1504748975.6,286047001.6,N
1504748995.4,286047004.3,N
1504749015.2,286047005.1,N
1504749035.0,286047005.4,N
1504749036.0,286047005.4,N
1504749055.8,286047005.3,N
1504749075.6,286047001.3,N
1504749095.4,286047000.1,N
1504749115.3,286046998.2,N
1504749135.1,286046996.5,N
1504749155.8,286046997.3,N
1504749175.7,286046996.7,N
1504749195.5,286047001.1,N
1504749215.3,286047001.9,N
1504749235.2,286047000.3,N
1504749255.9,286047002.1,N
1504749275.7,286047004.4,N
1504749295.6,286047003.9,N
1504749315.4,286047002.0,N
1504749335.2,286047002.2,N
1504749355.0,286047000.2,N
1504749355.9,286047000.2,N
1504749375.8,286047000.1,N
1504749395.6,286047002.6,N
1504749415.4,286047001.4,N
1504749435.3,286047001.6,N
1504749455.1,286047000.9,N
1504749475.8,286047000.1,N
1504749495.7,286047002.0,N
1504749515.5,286047002.5,N
1504749535.3,286047002.4,N
1504749555.2,286047002.7,N
1504749575.9,286047000.5,N
1504749595.7,286046999.3,N
